TimeMDT,TemperatureF,Dew PointF,Humidity,Sea Level PressureIn,VisibilityMPH,Wind Direction,Wind SpeedMPH,Gust SpeedMPH,PrecipitationIn,Events,Conditions,WindDirDegrees,DateUTC
12:12 AM,35.6,26.6,70,30.03,10.0,South,6.9,-,N/A,,Clear,190,2012-10-08 06:12:00
12:36 AM,41.0,26.6,57,30.03,10.0,SSW,11.5,-,N/A,,Clear,200,2012-10-08 06:36:00
12:52 AM,39.2,26.6,61,30.03,10.0,South,8.1,-,N/A,,Clear,190,2012-10-08 06:52:00
1:05 AM,35.6,26.6,70,30.03,10.0,South,5.8,-,N/A,,Clear,180,2012-10-08 07:05:00
1:26 AM,37.4,26.6,65,30.04,10.0,South,8.1,-,N/A,,Clear,190,2012-10-08 07:26:00
1:45 AM,35.6,26.6,70,30.04,10.0,South,9.2,-,N/A,,Clear,190,2012-10-08 07:45:00
2:15 AM,35.6,26.6,70,30.04,10.0,South,8.1,-,N/A,,Clear,180,2012-10-08 08:15:00
2:23 AM,35.6,26.6,70,30.04,10.0,South,9.2,-,N/A,,Clear,190,2012-10-08 08:23:00
2:44 AM,35.6,26.6,70,30.03,10.0,South,10.4,-,N/A,,Clear,190,2012-10-08 08:44:00
3:04 AM,33.8,26.6,75,30.03,10.0,South,5.8,-,N/A,,Clear,180,2012-10-08 09:04:00
3:31 AM,33.8,26.6,75,30.02,10.0,SSE,6.9,-,N/A,,Clear,160,2012-10-08 09:31:00
3:45 AM,33.8,26.6,75,30.02,10.0,South,4.6,-,N/A,,Clear,180,2012-10-08 09:45:00
4:07 AM,33.8,26.6,75,30.02,10.0,South,3.5,-,N/A,,Clear,180,2012-10-08 10:07:00
4:24 AM,33.8,26.6,75,30.01,10.0,SSW,9.2,-,N/A,,Clear,200,2012-10-08 10:24:00
4:44 AM,35.6,24.8,65,30.01,10.0,SSW,9.2,-,N/A,,Clear,200,2012-10-08 10:44:00
5:14 AM,35.6,23.0,60,30.01,10.0,South,8.1,-,N/A,,Clear,190,2012-10-08 11:14:00
5:35 AM,35.6,23.0,60,30.01,10.0,South,8.1,-,N/A,,Clear,190,2012-10-08 11:35:00
5:44 AM,35.6,23.0,60,30.01,10.0,South,8.1,-,N/A,,Clear,190,2012-10-08 11:44:00
6:04 AM,33.8,23.0,65,30.01,10.0,South,6.9,-,N/A,,Clear,180,2012-10-08 12:04:00
6:24 AM,33.8,23.0,65,30.01,10.0,South,6.9,-,N/A,,Clear,180,2012-10-08 12:24:00
6:42 AM,33.8,23.0,65,30.01,10.0,South,6.9,-,N/A,,Clear,170,2012-10-08 12:42:00
6:50 AM,33.8,23.0,65,30.00,10.0,South,6.9,-,N/A,,Partly Cloudy,170,2012-10-08 12:50:00
7:04 AM,33.8,23.0,65,30.00,10.0,South,9.2,-,N/A,,Clear,190,2012-10-08 13:04:00
7:50 AM,39.2,23.0,52,30.01,50.0,South,6.9,-,N/A,,Partly Cloudy,170,2012-10-08 13:50:00
9:48 AM,59.0,19.4,22,30.00,50.0,SW,5.8,-,N/A,,Partly Cloudy,220,2012-10-08 15:48:00
12:47 PM,71.6,12.2,10,29.95,50.0,WSW,11.5,-,N/A,,Partly Cloudy,250,2012-10-08 18:47:00
4:48 PM,91.4,53.6,28,29.86,50.0,NW,11.5,19.6,N/A,,Scattered Clouds,310,2012-10-08 22:48:00
5:57 PM,66.2,15.8,14,29.86,50.0,North,5.8,-,N/A,,Scattered Clouds,10,2012-10-08 23:57:00
6:50 PM,60.8,21.2,22,29.87,50.0,Calm,Calm,-,N/A,,Partly Cloudy,0,2012-10-09 00:50:00
7:55 PM,59.0,19.4,22,29.89,10.0,ENE,3.5,-,N/A,,Partly Cloudy,70,2012-10-09 01:55:00
8:48 PM,50.0,21.2,32,29.90,10.0,East,5.8,-,N/A,,Partly Cloudy,100,2012-10-09 02:48:00
8:56 PM,55.4,21.2,26,29.90,10.0,SE,5.8,-,N/A,,Clear,140,2012-10-09 02:56:00
9:16 PM,53.6,19.4,26,29.90,10.0,South,3.5,-,N/A,,Clear,180,2012-10-09 03:16:00
9:56 PM,53.6,19.4,26,29.91,10.0,SW,5.8,-,N/A,,Clear,230,2012-10-09 03:56:00
10:16 PM,51.8,21.2,30,29.91,10.0,SW,9.2,-,N/A,,Clear,230,2012-10-09 04:16:00
10:36 PM,55.4,17.6,23,29.91,10.0,West,10.4,-,N/A,,Clear,270,2012-10-09 04:36:00
10:56 PM,53.6,17.6,24,29.91,10.0,SW,8.1,-,N/A,,Clear,230,2012-10-09 04:56:00
11:16 PM,53.6,17.6,24,29.90,10.0,SW,9.2,-,N/A,,Clear,220,2012-10-09 05:16:00
11:36 PM,51.8,19.4,28,29.90,10.0,SW,9.2,-,N/A,,Clear,230,2012-10-09 05:36:00
11:56 PM,53.6,17.6,24,29.90,10.0,SSW,12.7,-,N/A,,Clear,210,2012-10-09 05:56:00